Regional Weather Roundup
Issued by NWS

Home | Current Version | Previous Version | Graphics & Text | Print | Product List | Glossary On
Versions: 1 2 3 4 5 6 7 8 9 10 11 12 13 14 15 16 17 18 19 20 21 22 23 24 25 26 27 28 29 30 31 32 33 34 35 36 37 38 39 40 41 42 43 44 45 46 47 48 49 50
000
ASUS45 KSLC 262110
RWRUT

UTAH REGIONAL WEATHER ROUNDUP
NATIONAL WEATHER SERVICE SALT LAKE CITY UT
300 PM MDT SUN MAR 26 2017

UTZ001>011-023>025-262200-

NORTHERN UTAH

CITY           SKY/WX    TMP DP  RH WIND       PRES   REMARKS
BRIGHAM CITY     N/A     51  29  42 S6        30.02F
HILL AFB       CLOUDY    50  27  40 VRB5      30.01F
LOGAN          CLOUDY    52  32  46 NW6       30.00F
OGDEN          CLOUDY    50  26  39 CALM      30.00F
SALT LAKE CITY CLOUDY    53  28  38 E3        30.00F
WENDOVER       CLOUDY    55  31  39 SE14      29.98F
HEBER CITY     PTSUNNY   52  25  35 S9        29.99F

$$

UTZ011>015-024>027-262200-

CENTRAL/NORTHEAST UTAH

CITY           SKY/WX    TMP DP  RH WIND       PRES   REMARKS
PROVO AIRPORT  CLOUDY    50  27  40 VRB6      30.03F
MOAB/CANYONLAN SUNNY     60  24  25 CALM      29.93F
DELTA          PTSUNNY   50  30  46 SW5       30.04S
PRICE          SUNNY     53  17  24 VRB5      29.97F
ROOSEVELT      PTSUNNY   54  30  40 SE5       30.00F
VERNAL         MOSUNNY   52  30  43 N3        29.98F

$$

UTZ013>016-019>022-027-262200-

SOUTHERN UTAH

CITY           SKY/WX    TMP DP  RH WIND       PRES   REMARKS
BRYCE CANYON   MOSUNNY   50  17  27 W10       30.04F
CEDAR CITY     MOSUNNY   53  27  36 VRB3      30.03F
MILFORD        CLOUDY    53  24  32 NE3       30.02F
ST GEORGE      MOCLDY    65  30  27 VRB6      29.99F
HANKSVILLE     SUNNY     59  21  23 CALM      29.97F
BLANDING       CLOUDY    56  29  35 S10G17    30.04F

$$

REGIONAL REPORTS     COLORADO/ARIZONA

CITY           SKY/WX    TMP DP  RH WIND       PRES   REMARKS
CRAIG, CO      CLOUDY    50  24  36 NW10G17   29.98F
GRAND JUNCTION CLOUDY    61  28  28 W9        29.93F
RIFLE, CO      CLOUDY    57  27  31 W10       29.95F
MONTROSE, CO   PTSUNNY   52  35  52 S14       29.98F
CORTEZ, CO     MOSUNNY   54  35  48 NW10      29.98F
COLORADO CITY    N/A     61  28  29 W3G9      30.05S
PAGE, AZ       SUNNY     61  38  42 CALM      29.98F
GRAND CANYON   SUNNY     53  17  24 NW6       30.05F
KINGMAN, AZ    SUNNY     68  15  13 MISG      30.00F
FLAGSTAFF, AZ  SUNNY     52  30  43 S14G21    30.04F

$$

REGIONAL REPORTS    NEVADA/IDAHO/WYOMING

CITY           SKY/WX    TMP DP  RH WIND       PRES   REMARKS
LAS VEGAS, NV  MOSUNNY   71  31  22 NE7       29.94F
ELY, NY        CLOUDY    49  25  39 SW5       30.00F
ELKO, NV       CLOUDY    53  26  35 S12       29.94F
POCATELLO, ID  CLOUDY    51  31  46 N5        29.96F
BURLEY, ID     CLOUDY    56  26  31 S15G24    29.92F
FORT BRIDGER,    N/A     46  22  38 NW12      30.02F
EVANSTON, WY   CLOUDY    42  19  39 W10       30.01F
ROCK SPRINGS,  SUNNY     46  21  37 W12       29.99F
KEMMERER, WY     N/A     37  25  60 W13       30.01S WCI  29

$$



USA.gov is the U.S. government's official web portal to all federal, state and local government web resources and services.